Tracking 25744 objects as of 25-Jun-2022
HD Live streaming from Space Station
objects crossing your sky now

STARLINK-3264

Track STARLINK-3264 now!
10-day predictions
STARLINK-3264 is classified as:


NORAD ID: 50198
Int'l Code: 2021-125AU
Perigee: 545.4 km
Apogee: 548.4 km
Inclination: 53.2 °
Period: 95.4 minutes
Semi major axis: 6917 km
RCS: Unknown
Launch date: December 18, 2021
Source: United States (US)
Launch site: AIR FORCE WESTERN TEST RANGE (AFWTR)
aabbcc
Your satellite tracking list
Your tracking list is empty




NASA's NSSDC Master Catalog

Two Line Element Set (TLE):
1 50198U 21125AU  22175.46585685  .00001367  00000-0  10402-3 0  9995
2 50198  53.2190 198.4746 0002207  45.3261 314.7910 15.08836325 31804
Source of the keplerian elements: AFSPC